| time (UTC) | temp F | wind direction | speed MPH | gust MPH | rain 1hr in | rain 24hr in | rain mn in | humidity % | barometer mb |
| 20260507051520 | 54 | 285 | 4.0 | 4.0 | 0.00 | 0.00 | 0.00 | 93 | 1019.1 |
| 20260507051017 | 54 | 205 | 1.0 | 7.0 | 0.00 | 0.00 | 0.00 | 93 | 1019.1 |
| 20260507050513 | 54 | 172 | 4.0 | 7.0 | 0.00 | 0.00 | 0.00 | 93 | 1019.1 |
| 20260507050010 | 54 | 159 | 4.0 | 8.0 | 0.00 | 0.00 | 0.00 | 93 | 1019.2 |
| 20260507045507 | 54 | 234 | 3.0 | 7.0 | 0.00 | 0.00 | 0.00 | 93 | 1019.1 |
| 20260507045004 | 54 | 281 | 4.0 | 7.0 | 0.00 | 0.00 | 0.00 | 93 | 1019.2 |
| 20260507044501 | 54 | 317 | 5.0 | 8.0 | 0.00 | 0.00 | 0.00 | 92 | 1019.1 |
| 20260507043957 | 54 | 190 | 2.0 | 7.0 | 0.00 | 0.00 | 0.00 | 92 | 1018.9 |
| 20260507043453 | 54 | 162 | 4.0 | 6.0 | 0.00 | 0.00 | 0.00 | 92 | 1019.0 |
| 20260507042949 | 54 | 223 | 4.0 | 6.0 | 0.00 | 0.00 | 0.00 | 92 | 1019.1 |
| 20260507042446 | 54 | 258 | 4.0 | 8.0 | 0.00 | 0.00 | 0.00 | 92 | 1018.8 |
| 20260507041942 | 54 | 165 | 2.0 | 4.0 | 0.00 | 0.00 | 0.00 | 92 | 1019.0 |
| 20260507041439 | 54 | 220 | 4.0 | 6.0 | 0.00 | 0.00 | 0.00 | 92 | 1018.8 |
| 20260507040936 | 54 | 220 | 5.0 | 7.0 | 0.00 | 0.00 | 0.00 | 92 | 1018.8 |
| 20260507040432 | 54 | 175 | 4.0 | 6.0 | 0.00 | 0.00 | 0.00 | 92 | 1018.7 |
| 20260507035928 | 55 | 239 | 3.0 | 6.0 | 0.00 | 0.00 | 0.00 | 92 | 1018.7 |
| 20260507035425 | 55 | 159 | 2.0 | 7.0 | 0.00 | 0.00 | 0.00 | 92 | 1018.6 |
| 20260507034922 | 55 | 244 | 1.0 | 4.0 | 0.00 | 0.00 | 0.00 | 91 | 1018.7 |
| 20260507034419 | 55 | 240 | 4.0 | 7.0 | 0.00 | 0.00 | 0.00 | 91 | 1018.7 |
| 20260507033917 | 55 | 196 | 2.0 | 7.0 | 0.00 | 0.00 | 0.00 | 91 | 1018.4 |
| 20260507033414 | 55 | 218 | 3.0 | 6.0 | 0.00 | 0.00 | 0.00 | 91 | 1018.2 |
| 20260507032911 | 55 | 235 | 2.0 | 7.0 | 0.00 | 0.00 | 0.00 | 91 | 1018.5 |
| 20260507032408 | 55 | 248 | 2.0 | 9.0 | 0.00 | 0.00 | 0.00 | 91 | 1018.6 |
| 20260507031904 | 55 | 198 | 4.0 | 9.0 | 0.00 | 0.00 | 0.00 | 90 | 1018.6 |
| 20260507031401 | 55 | 198 | 3.0 | 7.0 | 0.00 | 0.00 | 0.00 | 90 | 1018.4 |
| 20260507030857 | 55 | 197 | 2.0 | 7.0 | 0.00 | 0.00 | 0.00 | 90 | 1018.4 |
| 20260507030355 | 56 | 302 | 3.0 | 7.0 | 0.00 | 0.00 | 0.00 | 90 | 1018.6 |
| 20260507025851 | 56 | 277 | 2.0 | 9.0 | 0.00 | 0.00 | 0.00 | 90 | 1018.5 |
| 20260507025349 | 56 | 284 | 3.0 | 6.0 | 0.00 | 0.00 | 0.00 | 89 | 1018.5 |
| 20260507024847 | 56 | 191 | 3.0 | 7.0 | 0.00 | 0.00 | 0.00 | 89 | 1018.4 |
| 20260507024344 | 56 | 242 | 2.0 | 7.0 | 0.00 | 0.00 | 0.00 | 88 | 1018.3 |
| 20260507023839 | 57 | 230 | 4.0 | 6.0 | 0.00 | 0.00 | 0.00 | 88 | 1018.4 |
| 20260507023336 | 57 | 266 | 4.0 | 7.0 | 0.00 | 0.00 | 0.00 | 87 | 1018.4 |
| 20260507022834 | 57 | 208 | 4.0 | 7.0 | 0.00 | 0.00 | 0.00 | 87 | 1018.3 |
| 20260507022330 | 57 | 257 | 3.0 | 7.0 | 0.00 | 0.00 | 0.00 | 86 | 1018.2 |
| 20260507021826 | 57 | 272 | 3.0 | 6.0 | 0.00 | 0.00 | 0.00 | 86 | 1018.3 |
| 20260507021321 | 58 | 200 | 2.0 | 7.0 | 0.00 | 0.00 | 0.00 | 86 | 1018.0 |
| 20260507020820 | 58 | 302 | 2.0 | 7.0 | 0.00 | 0.00 | 0.00 | 85 | 1018.3 |
| 20260507020316 | 58 | 191 | 3.0 | 6.0 | 0.00 | 0.00 | 0.00 | 85 | 1018.3 |
| 20260507015814 | 59 | 154 | 2.0 | 6.0 | 0.00 | 0.00 | 0.00 | 84 | 1018.3 |
| 20260507015311 | 59 | 189 | 3.0 | 6.0 | 0.00 | 0.00 | 0.00 | 84 | 1018.3 |
| 20260507014808 | 59 | 223 | 1.0 | 6.0 | 0.00 | 0.00 | 0.00 | 84 | 1018.1 |
| 20260507014304 | 59 | 179 | 2.0 | 7.0 | 0.00 | 0.00 | 0.00 | 84 | 1018.5 |
| 20260507013800 | 60 | 191 | 3.0 | 7.0 | 0.00 | 0.00 | 0.00 | 83 | 1018.3 |
| 20260507013258 | 60 | 268 | 2.0 | 7.0 | 0.00 | 0.00 | 0.00 | 83 | 1018.1 |
| 20260507012755 | 60 | 324 | 4.0 | 7.0 | 0.00 | 0.00 | 0.00 | 83 | 1018.0 |
| 20260507012251 | 60 | 239 | 2.0 | 6.0 | 0.00 | 0.00 | 0.00 | 82 | 1018.3 |
| 20260507011749 | 60 | 171 | 3.0 | 8.0 | 0.00 | 0.00 | 0.00 | 82 | 1018.2 |
| 20260507011245 | 60 | 192 | 2.0 | 3.0 | 0.00 | 0.00 | 0.00 | 82 | 1018.2 |
| 20260507010744 | 61 | 318 | 3.0 | 4.0 | 0.00 | 0.00 | 0.00 | 82 | 1018.4 |
| 20260507010241 | 61 | 109 | 4.0 | 7.0 | 0.00 | 0.00 | 0.00 | 81 | 1018.1 |
| 20260507005738 | 61 | 218 | 2.0 | 6.0 | 0.00 | 0.00 | 0.00 | 82 | 1018.2 |
| 20260507005235 | 61 | 254 | 4.0 | 6.0 | 0.00 | 0.00 | 0.00 | 82 | 1018.5 |
| 20260507004731 | 61 | 197 | 5.0 | 9.0 | 0.00 | 0.00 | 0.00 | 82 | 1018.2 |
| 20260507004229 | 61 | 244 | 3.0 | 11.0 | 0.00 | 0.00 | 0.00 | 81 | 1018.1 |
| 20260507003725 | 61 | 204 | 2.0 | 4.0 | 0.00 | 0.00 | 0.00 | 81 | 1018.3 |
| 20260507003220 | 61 | 289 | 3.0 | 8.0 | 0.00 | 0.00 | 0.00 | 81 | 1018.2 |
| 20260507002716 | 62 | 279 | 7.0 | 9.0 | 0.00 | 0.00 | 0.00 | 80 | 1018.3 |
| 20260507002213 | 62 | 239 | 5.0 | 8.0 | 0.00 | 0.00 | 0.00 | 81 | 1018.3 |
| 20260507001710 | 62 | 193 | 3.0 | 8.0 | 0.00 | 0.00 | 0.00 | 80 | 1018.3 |
| 20260507001207 | 62 | 243 | 4.0 | 7.0 | 0.00 | 0.00 | 0.00 | 80 | 1018.4 |
| 20260507000703 | 62 | 199 | 3.0 | 8.0 | 0.00 | 0.00 | 0.00 | 80 | 1018.4 |
| 20260507000159 | 62 | 266 | 2.0 | 7.0 | 0.00 | 0.00 | 0.00 | 80 | 1018.4 |
| 20260506235656 | 63 | 332 | 4.0 | 9.0 | 0.00 | 0.00 | 0.00 | 80 | 1018.2 |
| 20260506235151 | 63 | 217 | 3.0 | 8.0 | 0.00 | 0.00 | 0.00 | 80 | 1018.7 |
| 20260506234649 | 63 | 201 | 2.0 | 7.0 | 0.00 | 0.00 | 0.00 | 80 | 1018.5 |
| 20260506234146 | 63 | 206 | 3.0 | 8.0 | 0.00 | 0.00 | 0.00 | 80 | 1018.4 |
| 20260506233643 | 63 | 186 | 3.0 | 7.0 | 0.00 | 0.00 | 0.00 | 80 | 1018.2 |
| 20260506233140 | 63 | 175 | 4.0 | 8.0 | 0.00 | 0.00 | 0.00 | 80 | 1018.3 |
| 20260506232636 | 63 | 217 | 3.0 | 10.0 | 0.00 | 0.00 | 0.00 | 79 | 1018.6 |
| 20260506232131 | 64 | 243 | 5.0 | 8.0 | 0.00 | 0.00 | 0.00 | 79 | 1018.4 |
| 20260506231629 | 63 | 221 | 2.0 | 7.0 | 0.00 | 0.00 | 0.00 | 79 | 1018.5 |
| 20260506231127 | 63 | 265 | 3.0 | 7.0 | 0.00 | 0.00 | 0.00 | 79 | 1018.6 |
| 20260506230624 | 64 | 263 | 3.0 | 6.0 | 0.00 | 0.00 | 0.00 | 79 | 1018.6 |
| 20260506230121 | 64 | 169 | 2.0 | 4.0 | 0.00 | 0.00 | 0.00 | 79 | 1018.8 |
| 20260506225617 | 64 | 193 | 4.0 | 7.0 | 0.00 | 0.00 | 0.00 | 79 | 1018.9 |
| 20260506225114 | 64 | 194 | 2.0 | 6.0 | 0.00 | 0.00 | 0.00 | 78 | 1018.7 |
| 20260506224610 | 65 | 129 | 1.0 | 6.0 | 0.00 | 0.00 | 0.00 | 77 | 1019.0 |
| 20260506224107 | 64 | 153 | 1.0 | 6.0 | 0.00 | 0.00 | 0.00 | 78 | 1019.0 |
| 20260506223603 | 65 | 195 | 4.0 | 8.0 | 0.00 | 0.00 | 0.00 | 77 | 1019.2 |
| 20260506223059 | 65 | 202 | 4.0 | 7.0 | 0.00 | 0.00 | 0.00 | 77 | 1019.0 |
| 20260506222556 | 65 | 213 | 2.0 | 7.0 | 0.00 | 0.00 | 0.00 | 77 | 1019.1 |
| 20260506222052 | 65 | 220 | 4.0 | 6.0 | 0.00 | 0.00 | 0.00 | 77 | 1019.3 |
| 20260506221550 | 65 | 309 | 3.0 | 8.0 | 0.00 | 0.00 | 0.00 | 77 | 1019.3 |
| 20260506221048 | 66 | 304 | 3.0 | 4.0 | 0.00 | 0.00 | 0.00 | 75 | 1019.3 |
| 20260506220544 | 66 | 254 | 1.0 | 6.0 | 0.00 | 0.00 | 0.00 | 74 | 1019.3 |
| 20260506220039 | 66 | 128 | 1.0 | 7.0 | 0.00 | 0.00 | 0.00 | 75 | 1019.4 |
| 20260506215537 | 66 | 250 | 2.0 | 4.0 | 0.00 | 0.00 | 0.00 | 75 | 1019.4 |
| 20260506215032 | 67 | 247 | 4.0 | 6.0 | 0.00 | 0.00 | 0.00 | 74 | 1019.7 |
| 20260506214529 | 67 | 188 | 2.0 | 3.0 | 0.00 | 0.00 | 0.00 | 74 | 1019.5 |
| 20260506214026 | 66 | 254 | 2.0 | 8.0 | 0.00 | 0.00 | 0.00 | 75 | 1019.6 |
| 20260506213525 | 67 | 280 | 3.0 | 7.0 | 0.00 | 0.00 | 0.00 | 74 | 1019.8 |
| 20260506213022 | 67 | 98 | 1.0 | 7.0 | 0.00 | 0.00 | 0.00 | 74 | 1019.7 |
| 20260506212518 | 67 | 335 | 2.0 | 4.0 | 0.00 | 0.00 | 0.00 | 74 | 1019.7 |
| 20260506212013 | 67 | 243 | 2.0 | 6.0 | 0.00 | 0.00 | 0.00 | 74 | 1019.9 |
| 20260506211509 | 68 | 209 | 3.0 | 4.0 | 0.00 | 0.00 | 0.00 | 73 | 1019.6 |
| 20260506211007 | 68 | 103 | 2.0 | 4.0 | 0.00 | 0.00 | 0.00 | 73 | 1019.6 |
| 20260506210503 | 68 | 211 | 3.0 | 3.0 | 0.00 | 0.00 | 0.00 | 73 | 1019.5 |
| 20260506205959 | 69 | 158 | 4.0 | 6.0 | 0.00 | 0.00 | 0.00 | 71 | 1019.7 |
| 20260506205455 | 68 | 190 | 2.0 | 3.0 | 0.00 | 0.00 | 0.00 | 71 | 1019.8 |
| 20260506204946 | 68 | 234 | 2.0 | 7.0 | 0.00 | 0.00 | 0.00 | 72 | 1019.8 |
| 20260506204444 | 68 | 230 | 2.0 | 4.0 | 0.00 | 0.00 | 0.00 | 73 | 1020.0 |
| 20260506203941 | 69 | 221 | 2.0 | 3.0 | 0.00 | 0.00 | 0.00 | 71 | 1020.1 |
| 20260506203438 | 69 | 201 | 2.0 | 4.0 | 0.00 | 0.00 | 0.00 | 71 | 1019.9 |
| 20260506202935 | 69 | 181 | 2.0 | 6.0 | 0.00 | 0.00 | 0.00 | 71 | 1020.0 |
| 20260506202432 | 69 | 228 | 1.0 | 3.0 | 0.00 | 0.00 | 0.00 | 70 | 1020.1 |
| 20260506201929 | 69 | 174 | 1.0 | 4.0 | 0.00 | 0.00 | 0.00 | 71 | 1020.2 |
| 20260506201426 | 69 | 238 | 2.0 | 3.0 | 0.00 | 0.00 | 0.00 | 71 | 1020.3 |
| 20260506200917 | 70 | 204 | 1.0 | 4.0 | 0.00 | 0.00 | 0.00 | 70 | 1020.1 |
| 20260506200413 | 69 | 207 | 2.0 | 4.0 | 0.00 | 0.00 | 0.00 | 71 | 1020.1 |
| 20260506195910 | 70 | 258 | 1.0 | 4.0 | 0.00 | 0.00 | 0.00 | 69 | 1020.4 |
| 20260506195407 | 71 | 244 | 2.0 | 3.0 | 0.00 | 0.00 | 0.00 | 68 | 1020.3 |
| 20260506194904 | 70 | 175 | 1.0 | 4.0 | 0.00 | 0.00 | 0.00 | 70 | 1020.4 |
| 20260506194401 | 70 | 212 | 3.0 | 4.0 | 0.00 | 0.00 | 0.00 | 68 | 1020.5 |
| 20260506193858 | 69 | 187 | 1.0 | 2.0 | 0.00 | 0.00 | 0.00 | 70 | 1020.5 |
| 20260506193354 | 69 | 194 | 2.0 | 3.0 | 0.00 | 0.00 | 0.00 | 70 | 1020.5 |
| 20260506192851 | 70 | 188 | 1.0 | 2.0 | 0.00 | 0.00 | 0.00 | 70 | 1020.6 |
| 20260506192348 | 70 | 150 | 2.0 | 2.0 | 0.00 | 0.00 | 0.00 | 69 | 1020.7 |
| 20260506191845 | 70 | 249 | 2.0 | 2.0 | 0.00 | 0.00 | 0.00 | 68 | 1020.8 |
| 20260506191341 | 71 | 161 | 1.0 | 2.0 | 0.00 | 0.00 | 0.00 | 68 | 1020.8 |
| 20260506190838 | 71 | 189 | 1.0 | 3.0 | 0.00 | 0.00 | 0.00 | 68 | 1020.9 |
| 20260506190334 | 70 | 262 | 1.0 | 3.0 | 0.00 | 0.00 | 0.00 | 68 | 1020.7 |
| 20260506185831 | 70 | 207 | 1.0 | 2.0 | 0.00 | 0.00 | 0.00 | 69 | 1020.7 |
| 20260506185328 | 70 | 248 | 1.0 | 2.0 | 0.00 | 0.00 | 0.00 | 69 | 1020.9 |
| 20260506184825 | 69 | 167 | 1.0 | 2.0 | 0.00 | 0.00 | 0.00 | 70 | 1020.7 |
| 20260506184323 | 69 | 348 | 0.0 | 6.0 | 0.00 | 0.00 | 0.00 | 69 | 1020.7 |
| 20260506183820 | 69 | 159 | 2.0 | 3.0 | 0.00 | 0.00 | 0.00 | 70 | 1020.7 |
| 20260506183315 | 69 | 207 | 1.0 | 3.0 | 0.00 | 0.00 | 0.00 | 70 | 1020.7 |
| 20260506182813 | 69 | 187 | 1.0 | 3.0 | 0.00 | 0.00 | 0.00 | 70 | 1020.9 |
| 20260506182310 | 69 | 248 | 1.0 | 4.0 | 0.00 | 0.00 | 0.00 | 70 | 1020.8 |
| 20260506181808 | 68 | 189 | 1.0 | 2.0 | 0.00 | 0.00 | 0.00 | 72 | 1020.7 |
| 20260506181305 | 68 | 170 | 1.0 | 3.0 | 0.00 | 0.00 | 0.00 | 72 | 1020.9 |
| 20260506180802 | 66 | 169 | 0.0 | 2.0 | 0.00 | 0.00 | 0.00 | 73 | 1020.8 |
| 20260506180257 | 67 | 172 | 0.0 | 2.0 | 0.00 | 0.00 | 0.00 | 72 | 1020.5 |
| 20260506175754 | 67 | 206 | 1.0 | 2.0 | 0.00 | 0.00 | 0.00 | 71 | 1020.7 |
| 20260506175251 | 68 | 163 | 1.0 | 1.0 | 0.00 | 0.00 | 0.00 | 69 | 1020.6 |
| 20260506174748 | 68 | 182 | 1.0 | 2.0 | 0.00 | 0.00 | 0.00 | 69 | 1020.6 |
| 20260506174245 | 68 | 159 | 2.0 | 3.0 | 0.00 | 0.00 | 0.00 | 69 | 1020.8 |
| 20260506173743 | 68 | 328 | 1.0 | 3.0 | 0.00 | 0.00 | 0.00 | 69 | 1020.6 |
| 20260506173240 | 67 | 59 | 1.0 | 2.0 | 0.00 | 0.00 | 0.00 | 71 | 1020.7 |
| 20260506172737 | 69 | 144 | 1.0 | 2.0 | 0.00 | 0.00 | 0.00 | 69 | 1020.8 |
| 20260506172233 | 68 | 149 | 0.0 | 1.0 | 0.00 | 0.00 | 0.00 | 69 | 1020.6 |
| 20260506171731 | 67 | 150 | 1.0 | 1.0 | 0.00 | 0.00 | 0.00 | 71 | 1020.7 |
| 20260506171228 | 67 | 139 | 1.0 | 1.0 | 0.00 | 0.00 | 0.00 | 71 | 1020.9 |
| 20260506170726 | 68 | 22 | 3.0 | 4.0 | 0.00 | 0.00 | 0.00 | 68 | 1021.0 |
| 20260506170222 | 68 | 142 | 1.0 | 3.0 | 0.00 | 0.00 | 0.00 | 70 | 1020.7 |
| 20260506165720 | 68 | 137 | 1.0 | 2.0 | 0.00 | 0.00 | 0.00 | 72 | 1020.8 |
| 20260506165217 | 67 | 140 | 0.0 | 1.0 | 0.00 | 0.00 | 0.00 | 71 | 1020.8 |
| 20260506164714 | 65 | 145 | 1.0 | 2.0 | 0.00 | 0.00 | 0.00 | 74 | 1020.7 |
| 20260506164211 | 65 | 143 | 1.0 | 2.0 | 0.00 | 0.00 | 0.00 | 73 | 1020.6 |
| 20260506163708 | 65 | 140 | 1.0 | 1.0 | 0.00 | 0.00 | 0.00 | 73 | 1020.7 |
| 20260506163203 | 65 | 143 | 1.0 | 1.0 | 0.00 | 0.00 | 0.00 | 74 | 1020.9 |
| 20260506162659 | 64 | 141 | 0.0 | 1.0 | 0.00 | 0.00 | 0.00 | 74 | 1021.0 |
| 20260506162157 | 64 | 142 | 0.0 | 1.0 | 0.00 | 0.00 | 0.00 | 74 | 1020.8 |
| 20260506161654 | 66 | 149 | 1.0 | 2.0 | 0.00 | 0.00 | 0.00 | 72 | 1020.8 |
| 20260506161150 | 65 | 142 | 1.0 | 2.0 | 0.00 | 0.00 | 0.00 | 73 | 1020.7 |
| 20260506160648 | 63 | 136 | 0.0 | 1.0 | 0.00 | 0.00 | 0.00 | 75 | 1020.8 |
| 20260506160145 | 62 | 138 | 0.0 | 1.0 | 0.00 | 0.00 | 0.00 | 75 | 1020.7 |
| 20260506155643 | 62 | 142 | 1.0 | 1.0 | 0.00 | 0.00 | 0.00 | 77 | 1020.8 |
| 20260506155140 | 63 | 140 | 0.0 | 1.0 | 0.00 | 0.00 | 0.00 | 75 | 1020.7 |
| 20260506153242 | 62 | 139 | 1.0 | 1.0 | 0.00 | 0.00 | 0.00 | 76 | 1020.9 |
| 20260506152739 | 62 | 139 | 0.0 | 0.0 | 0.00 | 0.00 | 0.00 | 76 | 1021.0 |
| 20260506152237 | 62 | 139 | 0.0 | 0.0 | 0.00 | 0.00 | 0.00 | 77 | 1020.8 |
| 20260506151735 | 61 | 137 | 0.0 | 1.0 | 0.00 | 0.00 | 0.00 | 78 | 1020.8 |
| 20260506151232 | 60 | 150 | 1.0 | 2.0 | 0.00 | 0.00 | 0.00 | 79 | 1020.8 |
| 20260506150728 | 60 | 141 | 1.0 | 2.0 | 0.00 | 0.00 | 0.00 | 79 | 1020.7 |
| 20260506150225 | 59 | 139 | 0.0 | 1.0 | 0.00 | 0.00 | 0.00 | 81 | 1020.7 |
| 20260506145722 | 59 | 136 | 0.0 | 1.0 | 0.00 | 0.00 | 0.00 | 81 | 1020.7 |
| 20260506145219 | 59 | 135 | 0.0 | 2.0 | 0.00 | 0.00 | 0.00 | 81 | 1020.7 |
| 20260506144716 | 59 | 145 | 1.0 | 2.0 | 0.00 | 0.00 | 0.00 | 82 | 1020.6 |
| 20260506144213 | 59 | 154 | 0.0 | 1.0 | 0.00 | 0.00 | 0.00 | 82 | 1020.5 |
| 20260506143711 | 58 | 142 | 0.0 | 1.0 | 0.00 | 0.00 | 0.00 | 83 | 1020.6 |
| 20260506143208 | 57 | 137 | 0.0 | 2.0 | 0.00 | 0.00 | 0.00 | 85 | 1020.5 |
| 20260506142707 | 56 | 143 | 0.0 | 1.0 | 0.00 | 0.00 | 0.00 | 86 | 1020.7 |
| 20260506142204 | 56 | 153 | 1.0 | 1.0 | 0.00 | 0.00 | 0.00 | 86 | 1020.4 |
| 20260506141702 | 56 | 144 | 1.0 | 1.0 | 0.00 | 0.00 | 0.00 | 87 | 1020.6 |
| 20260506141200 | 55 | 141 | 0.0 | 0.0 | 0.00 | 0.00 | 0.00 | 88 | 1020.3 |
| 20260506140657 | 55 | 144 | 0.0 | 1.0 | 0.00 | 0.00 | 0.00 | 89 | 1020.1 |
| 20260506140154 | 55 | 142 | 0.0 | 0.0 | 0.00 | 0.00 | 0.00 | 89 | 1020.2 |
| 20260506135651 | 54 | 142 | 0.0 | 0.0 | 0.00 | 0.00 | 0.00 | 89 | 1020.3 |
| 20260506135147 | 54 | 143 | 0.0 | 1.0 | 0.00 | 0.00 | 0.00 | 89 | 1020.3 |
| 20260506134644 | 54 | 141 | 0.0 | 0.0 | 0.00 | 0.00 | 0.00 | 90 | 1020.4 |
| 20260506134140 | 54 | 143 | 0.0 | 0.0 | 0.00 | 0.00 | 0.00 | 90 | 1020.1 |
| 20260506133637 | 54 | 142 | 0.0 | 0.0 | 0.00 | 0.00 | 0.00 | 90 | 1019.8 |
| 20260506133134 | 55 | 142 | 0.0 | 0.0 | 0.00 | 0.00 | 0.00 | 90 | 1020.1 |
| 20260506132632 | 55 | 141 | 0.0 | 0.0 | 0.00 | 0.00 | 0.00 | 90 | 1020.0 |
| 20260506132128 | 55 | 143 | 0.0 | 0.0 | 0.00 | 0.00 | 0.00 | 90 | 1019.9 |
| 20260506131626 | 55 | 142 | 0.0 | 0.0 | 0.00 | 0.00 | 0.00 | 89 | 1020.0 |
| 20260506131122 | 55 | 143 | 0.0 | 0.0 | 0.00 | 0.00 | 0.00 | 89 | 1019.7 |
| 20260506130619 | 55 | 141 | 0.0 | 1.0 | 0.00 | 0.00 | 0.00 | 89 | 1019.9 |
| 20260506130116 | 55 | 148 | 0.0 | 1.0 | 0.00 | 0.00 | 0.00 | 89 | 1019.9 |
| 20260506125615 | 55 | 141 | 0.0 | 1.0 | 0.00 | 0.00 | 0.00 | 89 | 1020.0 |
| 20260506125112 | 55 | 141 | 0.0 | 1.0 | 0.00 | 0.00 | 0.00 | 89 | 1019.9 |
| 20260506124609 | 55 | 141 | 0.0 | 0.0 | 0.00 | 0.00 | 0.00 | 89 | 1019.8 |
| 20260506124107 | 55 | 141 | 0.0 | 0.0 | 0.00 | 0.00 | 0.00 | 89 | 1019.7 |
| 20260506123604 | 55 | 144 | 0.0 | 1.0 | 0.00 | 0.00 | 0.00 | 89 | 1019.6 |
| 20260506123103 | 54 | 141 | 0.0 | 1.0 | 0.00 | 0.00 | 0.00 | 89 | 1019.7 |
| 20260506122559 | 54 | 140 | 0.0 | 2.0 | 0.00 | 0.00 | 0.00 | 89 | 1019.7 |
| 20260506122057 | 54 | 143 | 0.0 | 1.0 | 0.00 | 0.00 | 0.00 | 90 | 1019.6 |
| 20260506121555 | 54 | 141 | 0.0 | 0.0 | 0.00 | 0.00 | 0.00 | 90 | 1019.7 |
| 20260506121051 | 54 | 142 | 0.0 | 1.0 | 0.00 | 0.00 | 0.00 | 90 | 1019.8 |
| 20260506120549 | 54 | 140 | 0.0 | 0.0 | 0.00 | 0.00 | 0.00 | 91 | 1019.7 |
| 20260506120046 | 54 | 142 | 0.0 | 0.0 | 0.00 | 0.00 | 0.00 | 91 | 1019.7 |
| 20260506115544 | 54 | 141 | 0.0 | 0.0 | 0.00 | 0.00 | 0.00 | 91 | 1019.6 |
| 20260506115042 | 54 | 142 | 0.0 | 0.0 | 0.00 | 0.00 | 0.00 | 92 | 1019.4 |
| 20260506114539 | 54 | 142 | 0.0 | 0.0 | 0.00 | 0.00 | 0.00 | 92 | 1019.6 |
| 20260506114037 | 53 | 141 | 0.0 | 0.0 | 0.00 | 0.00 | 0.00 | 92 | 1019.5 |
| 20260506113535 | 53 | 141 | 0.0 | 0.0 | 0.00 | 0.00 | 0.00 | 92 | 1019.3 |
| 20260506113032 | 53 | 141 | 0.0 | 0.0 | 0.00 | 0.00 | 0.00 | 92 | 1019.4 |
| 20260506112528 | 53 | 141 | 0.0 | 0.0 | 0.00 | 0.00 | 0.00 | 92 | 1019.3 |
| 20260506112026 | 53 | 141 | 0.0 | 0.0 | 0.00 | 0.00 | 0.00 | 92 | 1019.4 |
| 20260506111524 | 53 | 140 | 0.0 | 0.0 | 0.00 | 0.00 | 0.00 | 92 | 1019.4 |
| 20260506111021 | 53 | 140 | 0.0 | 0.0 | 0.00 | 0.00 | 0.00 | 92 | 1019.2 |
| 20260506110519 | 53 | 139 | 0.0 | 0.0 | 0.00 | 0.00 | 0.00 | 92 | 1019.3 |
| 20260506110015 | 53 | 139 | 0.0 | 0.0 | 0.00 | 0.00 | 0.00 | 92 | 1019.3 |
| 20260506105511 | 53 | 138 | 0.0 | 0.0 | 0.00 | 0.00 | 0.00 | 92 | 1019.2 |
| 20260506105009 | 53 | 142 | 0.0 | 0.0 | 0.00 | 0.00 | 0.00 | 92 | 1019.3 |
| 20260506104507 | 53 | 142 | 0.0 | 0.0 | 0.00 | 0.00 | 0.00 | 92 | 1019.0 |
| 20260506104005 | 54 | 138 | 0.0 | 0.0 | 0.00 | 0.00 | 0.00 | 92 | 1019.1 |
| 20260506103501 | 54 | 143 | 0.0 | 0.0 | 0.00 | 0.00 | 0.00 | 92 | 1019.2 |
| 20260506102958 | 54 | 142 | 0.0 | 1.0 | 0.00 | 0.00 | 0.00 | 92 | 1019.1 |
| 20260506102456 | 54 | 145 | 1.0 | 1.0 | 0.00 | 0.00 | 0.00 | 92 | 1019.0 |
| 20260506101953 | 54 | 147 | 0.0 | 1.0 | 0.00 | 0.00 | 0.00 | 92 | 1019.0 |
| 20260506101450 | 54 | 145 | 0.0 | 0.0 | 0.00 | 0.00 | 0.00 | 92 | 1019.0 |
| 20260506100947 | 54 | 143 | 0.0 | 0.0 | 0.00 | 0.00 | 0.00 | 92 | 1019.0 |
| 20260506100446 | 54 | 143 | 0.0 | 0.0 | 0.00 | 0.00 | 0.00 | 92 | 1019.0 |
| 20260506095943 | 54 | 145 | 0.0 | 0.0 | 0.00 | 0.00 | 0.00 | 91 | 1019.1 |
| 20260506095442 | 54 | 144 | 0.0 | 0.0 | 0.00 | 0.00 | 0.00 | 91 | 1019.1 |
| 20260506094937 | 54 | 145 | 0.0 | 1.0 | 0.00 | 0.00 | 0.00 | 91 | 1019.2 |
| 20260506094436 | 54 | 145 | 0.0 | 1.0 | 0.00 | 0.00 | 0.00 | 91 | 1019.0 |
| 20260506093933 | 54 | 145 | 0.0 | 0.0 | 0.00 | 0.00 | 0.00 | 91 | 1019.0 |
| 20260506093431 | 54 | 146 | 0.0 | 1.0 | 0.00 | 0.00 | 0.00 | 91 | 1019.2 |
| 20260506092928 | 54 | 142 | 0.0 | 1.0 | 0.00 | 0.00 | 0.00 | 91 | 1018.8 |
| 20260506092426 | 54 | 145 | 0.0 | 1.0 | 0.00 | 0.00 | 0.00 | 91 | 1018.9 |
| 20260506091923 | 54 | 141 | 0.0 | 0.0 | 0.00 | 0.00 | 0.00 | 90 | 1018.9 |
| 20260506091421 | 54 | 142 | 0.0 | 1.0 | 0.00 | 0.00 | 0.00 | 90 | 1019.0 |
| 20260506090918 | 54 | 141 | 0.0 | 1.0 | 0.00 | 0.00 | 0.00 | 90 | 1019.1 |
| 20260506090415 | 54 | 142 | 0.0 | 0.0 | 0.00 | 0.00 | 0.00 | 90 | 1018.8 |
| 20260506085912 | 55 | 145 | 0.0 | 1.0 | 0.00 | 0.00 | 0.00 | 90 | 1019.0 |
| 20260506085409 | 55 | 144 | 0.0 | 1.0 | 0.00 | 0.00 | 0.00 | 90 | 1018.9 |
| 20260506084905 | 55 | 150 | 1.0 | 1.0 | 0.00 | 0.00 | 0.00 | 89 | 1019.0 |
| 20260506084402 | 55 | 147 | 1.0 | 2.0 | 0.00 | 0.00 | 0.00 | 89 | 1019.1 |
| 20260506083858 | 55 | 143 | 0.0 | 1.0 | 0.00 | 0.00 | 0.00 | 89 | 1019.1 |
| 20260506083356 | 55 | 153 | 0.0 | 2.0 | 0.00 | 0.00 | 0.00 | 89 | 1018.9 |
| 20260506082853 | 55 | 150 | 1.0 | 2.0 | 0.00 | 0.00 | 0.00 | 89 | 1019.0 |
| 20260506082349 | 55 | 144 | 0.0 | 3.0 | 0.00 | 0.00 | 0.00 | 89 | 1019.1 |
| 20260506081845 | 55 | 144 | 1.0 | 2.0 | 0.00 | 0.00 | 0.00 | 89 | 1019.0 |
| 20260506081343 | 55 | 143 | 0.0 | 2.0 | 0.00 | 0.00 | 0.00 | 89 | 1019.1 |
| 20260506080835 | 55 | 145 | 1.0 | 1.0 | 0.00 | 0.00 | 0.00 | 89 | 1019.0 |
| 20260506080331 | 55 | 144 | 0.0 | 2.0 | 0.00 | 0.00 | 0.00 | 89 | 1019.2 |
| 20260506073316 | 55 | 141 | 0.0 | 1.0 | 0.00 | 0.00 | 0.00 | 88 | 1018.8 |
| 20260506072812 | 55 | 155 | 0.0 | 2.0 | 0.00 | 0.00 | 0.00 | 88 | 1018.8 |
| 20260506072310 | 55 | 145 | 0.0 | 1.0 | 0.00 | 0.00 | 0.00 | 88 | 1018.9 |
| 20260506071808 | 55 | 145 | 0.0 | 1.0 | 0.00 | 0.00 | 0.00 | 88 | 1018.8 |
| 20260506071306 | 55 | 148 | 1.0 | 3.0 | 0.00 | 0.00 | 0.00 | 88 | 1018.6 |
| 20260506070802 | 55 | 143 | 1.0 | 2.0 | 0.00 | 0.00 | 0.00 | 88 | 1018.6 |
| 20260506070259 | 55 | 140 | 0.0 | 1.0 | 0.00 | 0.00 | 0.00 | 88 | 1018.8 |
| 20260506062236 | 55 | 195 | 1.0 | 2.0 | 0.00 | 0.10 | 0.10 | 89 | 1018.4 |
| 20260506061732 | 55 | 211 | 1.0 | 2.0 | 0.00 | 0.10 | 0.10 | 89 | 1018.3 |
| 20260506061230 | 55 | 177 | 0.0 | 1.0 | 0.00 | 0.10 | 0.10 | 88 | 1018.4 |
| 20260506060728 | 56 | 182 | 1.0 | 3.0 | 0.00 | 0.10 | 0.10 | 88 | 1018.4 |
| 20260506060225 | 56 | 198 | 1.0 | 1.0 | 0.00 | 0.10 | 0.10 | 88 | 1018.2 |